Simultaneous Nadir Overpasses (SNOs) Predictions

Prediction of SNOs between FY3D and AQUA Satellite Orbit:

Table of predicted SNOs for the next 14.0 days since TLE Epoch: 7/29/2023
Index Date (FY3D) Time (FY3D) Lat,Lon (FY3D) SZA (FY3D ) Date (AQUA) Time (AQUA) Lat,Lon (AQUA) SZA (AQUA ) Distance(km) Time Diff (sec)
1 07/30/2023 14:46:50 -78.67, 119.86 119.12 07/30/2023 14:46:59 -78.66, 119.88 119.13 0.58 9
2 07/30/2023 15:37:26 78.26, -70.36 60.33 07/30/2023 15:36:14 78.26, -70.35 60.35 0.33 72
3 08/02/2023 03:43:12 -81.00,-101.87 113.79 08/02/2023 03:44:26 -81.39,-101.30 113.64 44.29 74
4 08/02/2023 04:32:25 78.57, 94.09 61.38 08/02/2023 04:32:20 78.57, 94.05 61.39 0.84 5
5 08/04/2023 17:27:25 78.91,-101.83 62.52 08/04/2023 17:28:26 78.91,-101.82 62.49 0.37 61
6 08/04/2023 18:17:58 -78.48, 68.29 118.08 08/04/2023 18:17:40 -78.49, 68.18 118.06 2.81 18
7 08/07/2023 07:12:59 -78.86,-127.85 116.87 08/07/2023 07:13:46 -78.86,-127.83 116.89 0.48 47
8 08/07/2023 08:03:35 78.47, 41.97 62.60 08/07/2023 08:03:01 78.48, 41.95 62.62 0.69 34
9 08/09/2023 20:58:33 78.75,-153.49 63.71 08/09/2023 20:59:04 78.76,-153.56 63.71 1.79 31



Historial Predications of SNOs between FY3D and AQUA
